Date,TemperatureHighF,TemperatureAvgF,TemperatureLowF,DewpointHighF,DewpointAvgF,DewpointLowF,HumidityHigh,HumidityAvg,HumidityLow,PressureMaxIn,PressureMinIn,WindSpeedMaxMPH,WindSpeedAvgMPH,GustSpeedMaxMPH,PrecipitationSumIn
2013-3-1,70,40,27,34,15,-16,80,48,3,30.33,30.15,20,2,20,1.25
2013-3-2,64,47,34,27,24,19,64,42,24,30.44,30.27,20,4,20,1.25
2013-3-3,78,57,36,78,17,-22,100,33,2,30.27,29.91,24,6,24,1.25
2013-3-4,91,69,54,47,28,-18,66,33,2,29.94,29.71,18,5,18,1.25
2013-3-5,68,56,38,43,21,-14,50,33,4,30.39,29.74,29,9,29,0.04
2013-3-6,69,48,28,28,3,-16,63,26,3,30.47,30.21,12,3,12,0.04
2013-3-7,73,56,38,50,36,19,72,49,35,30.27,30.09,19,6,19,0.00
2013-3-8,62,58,55,60,55,49,97,89,72,30.18,30.00,15,5,15,0.00
2013-3-9,73,65,59,63,60,56,96,85,69,30.00,29.68,24,7,24,0.66
2013-3-10,63,56,39,58,33,22,97,45,29,30.15,29.76,30,8,30,0.00
2013-3-11,71,50,31,29,11,-22,74,35,2,30.21,29.97,16,4,16,0.00
2013-3-12,82,59,38,38,16,-22,74,32,2,30.30,30.06,17,4,17,0.00
2013-3-13,79,61,42,37,30,21,55,33,12,30.44,30.27,17,4,17,0.00
2013-3-14,78,62,44,48,40,29,79,45,30,30.39,30.21,18,6,18,0.00
2013-3-15,81,66,51,52,46,35,92,53,30,30.24,29.97,23,6,23,0.00
2013-3-16,85,70,54,59,51,44,90,56,30,30.00,29.74,24,7,24,0.00
2013-3-17,88,72,64,59,56,49,81,60,34,29.85,29.68,21,5,21,0.00
2013-3-18,87,70,55,65,48,32,96,54,15,29.97,29.74,17,4,17,0.00
2013-3-19,86,65,44,59,47,36,85,54,32,30.12,29.85,17,4,17,0.00
2013-3-20,75,60,47,51,36,-21,94,49,2,30.33,30.00,17,5,17,0.04
2013-3-21,78,63,52,56,47,32,85,57,43,30.06,29.65,30,6,30,0.04
2013-3-22,85,69,53,64,55,41,87,62,38,29.82,29.65,17,4,17,0.04
2013-3-23,84,61,48,57,48,42,90,67,31,29.85,29.62,16,3,16,0.04
2013-3-24,59,49,39,56,24,-7,92,42,7,30.21,29.74,26,9,27,0.04
2013-3-25,64,47,31,20,4,-14,46,24,4,30.41,30.18,13,4,13,0.04
2013-3-26,71,50,27,28,5,-22,65,27,2,30.50,30.27,11,2,11,0.04
2013-3-27,71,56,37,43,33,19,67,44,34,30.33,30.15,24,5,24,0.04
2013-3-28,72,61,50,56,51,43,85,70,51,30.21,30.12,18,5,19,0.04
2013-3-29,77,66,54,58,52,49,96,64,41,30.21,30.03,21,5,21,0.04
2013-3-30,87,70,62,60,56,52,87,63,39,30.12,29.91,20,4,20,0.04
2013-3-31,80,69,62,70,61,56,91,77,50,30.00,29.85,12,2,12,0.09